TimeEST,TemperatureF,Dew PointF,Humidity,Sea Level PressureIn,VisibilityMPH,Wind Direction,Wind SpeedMPH,Gust SpeedMPH,PrecipitationIn,Events,Conditions,WindDirDegrees,DateUTC
12:15 AM,39.2,31.8,75,29.69,10.0,NW,6.9,-,N/A,Rain,Rain,310,2013-02-27 05:15:00
12:35 AM,38.7,32.0,77,29.69,10.0,WSW,3.5,-,N/A,,Overcast,250,2013-02-27 05:35:00
12:55 AM,39.7,29.3,66,29.69,10.0,West,9.2,16.1,N/A,,Overcast,280,2013-02-27 05:55:00
1:15 AM,39.2,30.7,72,29.68,10.0,West,5.8,-,N/A,,Overcast,280,2013-02-27 06:15:00
1:35 AM,38.7,31.1,74,29.70,10.0,WSW,15.0,18.4,N/A,,Light Drizzle,250,2013-02-27 06:35:00
1:55 AM,38.7,28.9,68,29.71,10.0,West,13.8,28.8,0.01,,Overcast,270,2013-02-27 06:55:00
2:15 AM,38.5,28.8,68,29.71,10.0,WSW,10.4,28.8,N/A,,Overcast,250,2013-02-27 07:15:00
2:35 AM,38.5,27.1,64,29.71,10.0,West,11.5,21.9,N/A,,Overcast,280,2013-02-27 07:35:00
2:55 AM,38.3,27.3,65,29.71,10.0,West,8.1,-,N/A,,Overcast,260,2013-02-27 07:55:00
3:15 AM,38.3,27.9,66,29.71,10.0,West,6.9,-,N/A,,Overcast,260,2013-02-27 08:15:00
3:35 AM,38.5,27.5,65,29.72,10.0,Calm,Calm,-,N/A,,Overcast,0,2013-02-27 08:35:00
3:55 AM,38.3,27.7,66,29.72,10.0,Calm,Calm,-,N/A,,Overcast,0,2013-02-27 08:55:00
4:15 AM,38.3,27.9,66,29.73,10.0,WNW,5.8,-,N/A,,Overcast,290,2013-02-27 09:15:00
4:35 AM,38.3,28.0,67,29.72,10.0,NW,5.8,-,N/A,,Overcast,320,2013-02-27 09:35:00
4:55 AM,38.3,28.0,67,29.73,10.0,West,13.8,-,N/A,,Overcast,260,2013-02-27 09:55:00
5:15 AM,37.8,27.9,67,29.74,10.0,West,15.0,-,N/A,,Overcast,260,2013-02-27 10:15:00
5:35 AM,37.6,27.3,66,29.74,10.0,West,12.7,-,N/A,,Overcast,260,2013-02-27 10:35:00
5:55 AM,36.9,27.5,69,29.75,10.0,WNW,8.1,-,N/A,,Mostly Cloudy,300,2013-02-27 10:55:00
6:15 AM,36.1,27.9,72,29.75,10.0,WNW,4.6,-,N/A,,Scattered Clouds,300,2013-02-27 11:15:00
6:35 AM,36.5,27.7,70,29.75,10.0,West,6.9,-,N/A,,Mostly Cloudy,280,2013-02-27 11:35:00
6:55 AM,36.5,27.5,70,29.75,10.0,Calm,Calm,-,N/A,,Mostly Cloudy,0,2013-02-27 11:55:00
7:35 AM,36.7,27.5,69,29.77,10.0,WSW,5.8,-,N/A,,Overcast,240,2013-02-27 12:35:00
7:55 AM,37.0,27.9,69,29.77,10.0,Calm,Calm,-,N/A,,Mostly Cloudy,0,2013-02-27 12:55:00
8:15 AM,36.5,27.5,70,29.78,10.0,Calm,Calm,-,N/A,,Scattered Clouds,0,2013-02-27 13:15:00
8:35 AM,39.0,28.2,65,29.78,10.0,Calm,Calm,-,N/A,,Mostly Cloudy,0,2013-02-27 13:35:00
8:55 AM,37.8,27.5,67,29.79,10.0,WNW,5.8,-,N/A,,Mostly Cloudy,300,2013-02-27 13:55:00
9:15 AM,38.5,28.2,67,29.80,10.0,NW,6.9,-,N/A,,Mostly Cloudy,320,2013-02-27 14:15:00
9:35 AM,39.2,28.4,65,29.80,10.0,NNW,6.9,-,N/A,,Overcast,330,2013-02-27 14:35:00
9:55 AM,40.5,29.1,64,29.80,10.0,North,10.4,-,N/A,,Overcast,360,2013-02-27 14:55:00
10:15 AM,40.5,29.3,64,29.80,10.0,North,8.1,-,N/A,,Scattered Clouds,10,2013-02-27 15:15:00
10:35 AM,40.6,28.8,63,29.80,10.0,North,10.4,-,N/A,,Scattered Clouds,360,2013-02-27 15:35:00
10:55 AM,42.8,30.0,61,29.80,10.0,NNW,10.4,-,N/A,,Scattered Clouds,340,2013-02-27 15:55:00
11:15 AM,42.8,28.9,58,29.80,10.0,WNW,4.6,-,N/A,,Clear,300,2013-02-27 16:15:00
11:35 AM,44.2,30.2,58,29.80,10.0,North,11.5,-,N/A,,Clear,350,2013-02-27 16:35:00
11:55 AM,45.5,30.6,56,29.79,10.0,North,10.4,-,N/A,,Clear,350,2013-02-27 16:55:00
12:15 PM,47.1,30.9,53,29.78,10.0,NNW,5.8,-,N/A,,Clear,340,2013-02-27 17:15:00
12:35 PM,48.0,30.7,51,29.78,10.0,NW,6.9,-,N/A,,Clear,320,2013-02-27 17:35:00
12:55 PM,49.3,30.7,49,29.77,10.0,North,5.8,-,N/A,,Clear,360,2013-02-27 17:55:00
1:15 PM,50.5,30.9,47,29.76,10.0,NW,3.5,-,N/A,,Clear,310,2013-02-27 18:15:00
1:35 PM,51.6,29.8,43,29.75,10.0,NE,3.5,-,N/A,,Clear,50,2013-02-27 18:35:00
1:55 PM,52.7,29.7,41,29.75,10.0,North,8.1,16.1,N/A,,Clear,360,2013-02-27 18:55:00
2:15 PM,53.6,28.0,37,29.75,10.0,WSW,11.5,24.2,N/A,,Scattered Clouds,250,2013-02-27 19:15:00
2:35 PM,52.5,25.2,35,29.76,10.0,WSW,15.0,23.0,N/A,,Scattered Clouds,240,2013-02-27 19:35:00
2:55 PM,52.0,27.1,38,29.76,10.0,WSW,10.4,27.6,N/A,,Clear,250,2013-02-27 19:55:00
3:35 PM,52.9,24.8,34,29.75,10.0,WNW,11.5,20.7,N/A,,Clear,290,2013-02-27 20:35:00
3:55 PM,52.9,23.9,32,29.75,10.0,WNW,18.4,32.2,N/A,,Clear,290,2013-02-27 20:55:00
4:15 PM,52.7,24.6,34,29.74,10.0,WNW,13.8,18.4,N/A,,Clear,290,2013-02-27 21:15:00
4:35 PM,52.3,25.5,35,29.74,10.0,NW,6.9,-,N/A,,Clear,310,2013-02-27 21:35:00
4:55 PM,52.2,26.6,37,29.75,10.0,West,11.5,-,N/A,,Clear,280,2013-02-27 21:55:00
5:15 PM,51.4,27.9,40,29.75,10.0,West,10.4,18.4,N/A,,Clear,270,2013-02-27 22:15:00
5:35 PM,50.4,27.7,42,29.75,10.0,West,8.1,-,N/A,,Clear,280,2013-02-27 22:35:00
5:55 PM,48.7,28.2,45,29.75,10.0,West,10.4,-,N/A,,Scattered Clouds,260,2013-02-27 22:55:00
6:15 PM,48.2,27.7,45,29.76,10.0,West,10.4,-,N/A,,Scattered Clouds,270,2013-02-27 23:15:00
6:35 PM,47.7,28.0,47,29.77,10.0,West,8.1,-,N/A,,Mostly Cloudy,270,2013-02-27 23:35:00
6:55 PM,47.3,30.7,53,29.78,10.0,WSW,8.1,-,N/A,Rain,Light Rain,240,2013-02-27 23:55:00
7:15 PM,45.7,32.0,59,29.78,10.0,WSW,5.8,-,N/A,Rain,Rain,240,2013-02-28 00:15:00
7:35 PM,45.0,32.9,63,29.78,10.0,West,6.9,-,N/A,Rain,Light Rain,260,2013-02-28 00:35:00
7:55 PM,44.4,33.1,64,29.78,10.0,WSW,4.6,-,N/A,,Light Drizzle,250,2013-02-28 00:55:00
8:15 PM,45.0,31.1,58,29.78,10.0,West,9.2,-,N/A,,Light Drizzle,260,2013-02-28 01:15:00
8:35 PM,43.9,31.6,62,29.79,10.0,WSW,13.8,-,N/A,,Light Drizzle,240,2013-02-28 01:35:00
9:15 PM,42.4,32.2,67,29.79,10.0,WSW,9.2,-,N/A,,Light Drizzle,250,2013-02-28 02:15:00
9:35 PM,42.3,32.0,67,29.80,10.0,West,4.6,-,N/A,,Overcast,270,2013-02-28 02:35:00
9:55 PM,41.4,33.1,72,29.80,10.0,North,6.9,-,N/A,,Light Drizzle,360,2013-02-28 02:55:00
10:15 PM,40.6,33.1,74,29.79,10.0,North,6.9,-,N/A,Rain,Light Rain,10,2013-02-28 03:15:00
10:35 PM,40.1,33.3,77,29.79,10.0,North,6.9,-,N/A,Rain,Light Rain,10,2013-02-28 03:35:00
10:55 PM,39.7,33.4,78,29.79,10.0,NE,4.6,-,N/A,,Overcast,40,2013-02-28 03:55:00
11:15 PM,40.3,31.6,71,29.79,10.0,North,4.6,-,N/A,,Overcast,350,2013-02-28 04:15:00
11:35 PM,40.3,30.7,69,29.78,10.0,North,4.6,-,N/A,,Overcast,10,2013-02-28 04:35:00
11:55 PM,40.5,28.9,64,29.78,10.0,North,3.5,-,N/A,,Overcast,10,2013-02-28 04:55:00